DW6430 Weather Reports


Display with metric or nautical units.
time (UTC)temp
F
wind
direction
speed
MPH
gust
MPH
rain 1hr
in
rain 24hr
in
rain mn
in
humidity
%
barometer
mb
20190325175202 48 264 6.0 0.0 0.00 0.00 0.00 77 1027.4
20190325174703 48 347 6.0 0.0 0.00 0.00 0.00 76 1027.3
20190325174208 48 7 6.0 0.0 0.00 0.00 0.00 76 1027.2
20190325173706 48 330 7.0 0.0 0.00 0.00 0.00 75 1027.2
20190325173203 48 339 5.0 0.0 0.00 0.00 0.00 75 1027.1
20190325172702 48 307 5.0 0.0 0.00 0.00 0.00 75 1027.1
20190325172204 48 322 5.0 0.0 0.00 0.00 0.00 75 1027.1
20190325171705 48 77 5.0 0.0 0.00 0.00 0.00 75 1027.0
20190325171203 48 260 6.0 0.0 0.00 0.00 0.00 75 1027.0
20190325170703 48 28 6.0 0.0 0.00 0.00 0.00 75 1026.9
20190325170204 48 26 6.0 0.0 0.00 0.00 0.00 75 1026.9
20190325165703 48 316 7.0 0.0 0.00 0.00 0.00 74 1027.0
20190325165203 48 280 8.0 0.0 0.00 0.00 0.00 73 1027.0
20190325164705 49 41 8.0 0.0 0.00 0.00 0.00 72 1026.8
20190325164209 49 345 7.0 0.0 0.00 0.00 0.00 72 1026.8
20190325163702 49 124 7.0 0.0 0.00 0.00 0.00 74 1026.8
20190325163203 49 278 7.0 0.0 0.00 0.00 0.00 73 1026.7
20190325162704 49 65 6.0 0.0 0.00 0.00 0.00 72 1026.6
20190325162203 49 307 6.0 0.0 0.00 0.00 0.00 72 1026.5
20190325161703 49 294 6.0 0.0 0.00 0.00 0.00 73 1026.4
20190325161204 49 356 7.0 0.0 0.00 0.00 0.00 72 1026.4
20190325160703 49 325 7.0 0.0 0.00 0.00 0.00 72 1026.3
20190325160202 49 332 6.0 0.0 0.00 0.00 0.00 71 1026.4
20190325155702 49 29 7.0 0.0 0.00 0.00 0.00 72 1026.4
20190325155202 49 318 8.0 0.0 0.00 0.00 0.00 71 1026.3
20190325154705 49 290 7.0 0.0 0.00 0.00 0.00 72 1026.3
20190325154202 49 266 6.0 0.0 0.00 0.00 0.00 72 1026.2
20190325153703 49 76 7.0 0.0 0.00 0.00 0.00 72 1026.2
20190325153206 49 288 7.0 0.0 0.00 0.00 0.00 72 1026.2
20190325152703 49 283 7.0 0.0 0.00 0.00 0.00 74 1026.2
20190325152204 49 14 7.0 0.0 0.00 0.00 0.00 73 1026.1
20190325151705 49 193 6.0 0.0 0.00 0.00 0.00 73 1026.1
20190325151203 49 11 8.0 0.0 0.00 0.00 0.00 73 1026.1
20190325150702 49 47 10.0 0.0 0.00 0.00 0.00 71 1026.1
20190325150203 49 290 9.0 0.0 0.00 0.00 0.00 70 1025.9
20190325145702 49 263 9.0 0.0 0.00 0.00 0.00 71 1025.8
20190325145204 49 274 9.0 0.0 0.00 0.00 0.00 70 1025.9
20190325144702 50 53 8.0 0.0 0.00 0.00 0.00 70 1025.9
20190325144209 50 316 7.0 0.0 0.00 0.00 0.00 69 1025.7
20190325143703 50 8 7.0 0.0 0.00 0.00 0.00 69 1025.8
20190325143203 50 292 8.0 0.0 0.00 0.00 0.00 70 1025.7
20190325142702 50 287 10.0 0.0 0.00 0.00 0.00 68 1025.8
20190325142203 50 309 10.0 0.0 0.00 0.00 0.00 69 1025.7
20190325141702 50 326 8.0 0.0 0.00 0.00 0.00 68 1025.8
20190325141203 50 345 7.0 0.0 0.00 0.00 0.00 67 1025.7
20190325140703 50 277 8.0 0.0 0.00 0.00 0.00 68 1025.6
20190325140203 50 12 9.0 0.0 0.00 0.00 0.00 66 1025.6
20190325135703 50 300 10.0 0.0 0.00 0.00 0.00 67 1025.6
20190325135202 49 11 11.0 0.0 0.00 0.00 0.00 68 1025.5
20190325134704 49 302 12.0 0.0 0.00 0.00 0.00 66 1025.5
20190325134206 50 278 12.0 0.0 0.00 0.00 0.00 66 1025.5
20190325133705 50 354 10.0 0.0 0.00 0.00 0.00 66 1025.5
20190325133202 50 226 9.0 0.0 0.00 0.00 0.00 67 1025.4
20190325132703 49 305 9.0 0.0 0.00 0.00 0.00 68 1025.5
20190325132203 49 281 9.0 0.0 0.00 0.00 0.00 69 1025.4
20190325131702 49 262 11.0 0.0 0.00 0.00 0.00 69 1025.4
20190325131207 49 315 11.0 0.0 0.00 0.00 0.00 68 1025.4
20190325130706 49 290 11.0 0.0 0.00 0.00 0.00 70 1025.3
20190325130204 49 302 12.0 0.0 0.00 0.00 0.00 69 1025.3
20190325125703 49 334 12.0 0.0 0.00 0.00 0.00 68 1025.3
20190325125211 50 312 12.0 0.0 0.00 0.00 0.00 69 1025.3
20190325124203 49 281 9.0 0.0 0.00 0.00 0.00 69 1025.2
20190325123702 49 331 7.0 0.0 0.00 0.00 0.00 70 1025.3
20190325123202 49 235 9.0 0.0 0.00 0.00 0.00 70 1025.3
20190325122704 49 24 11.0 0.0 0.00 0.00 0.00 74 1025.3
20190325122205 49 283 11.0 0.0 0.00 0.00 0.00 74 1025.3
20190325121706 49 308 10.0 0.0 0.00 0.00 0.00 74 1025.2
20190325121208 49 311 9.0 0.0 0.00 0.00 0.00 73 1025.3
20190325120703 49 294 12.0 0.0 0.00 0.00 0.00 73 1025.3
20190325120203 49 302 14.0 0.0 0.00 0.00 0.00 73 1025.3
20190325115703 49 312 13.0 0.0 0.00 0.00 0.00 74 1025.1
20190325115206 48 302 10.0 0.0 0.00 0.00 0.00 74 1025.1
20190325114703 48 288 8.0 0.0 0.00 0.00 0.00 79 1025.2
20190325114209 47 291 10.0 0.0 0.00 0.00 0.00 82 1025.1
20190325113703 46 305 9.0 0.0 0.00 0.00 0.00 84 1025.1
20190325113203 45 280 7.0 0.0 0.00 0.00 0.00 88 1025.2
20190325112704 45 308 8.0 0.0 0.00 0.00 0.00 86 1025.3
20190325112203 46 314 10.0 11.0 0.00 0.00 0.00 82 1025.3
20190325111704 48 305 12.0 20.0 0.00 0.00 0.00 72 1025.3
20190325111203 49 294 12.0 20.0 0.00 0.00 0.00 69 1024.8
20190325110706 49 345 11.0 20.0 0.00 0.00 0.00 68 1025.0
20190325110205 49 324 10.0 22.0 0.00 0.00 0.00 65 1024.9
20190325105703 49 286 11.0 22.0 0.00 0.00 0.00 66 1024.9
20190325105205 49 304 13.0 26.0 0.00 0.00 0.00 66 1024.8
20190325104703 49 301 13.0 26.0 0.00 0.00 0.00 65 1024.8
20190325104204 49 309 12.0 26.0 0.00 0.00 0.00 66 1024.8
20190325103703 49 285 12.0 26.0 0.00 0.00 0.00 66 1024.8
20190325103204 49 286 12.0 26.0 0.00 0.00 0.00 66 1024.5
20190325102703 49 296 12.0 26.0 0.00 0.00 0.00 66 1024.5
20190325102205 49 271 11.0 23.0 0.00 0.00 0.00 68 1024.5
20190325101703 48 293 8.0 22.0 0.00 0.00 0.00 70 1024.4
20190325101203 48 278 8.0 22.0 0.00 0.00 0.00 71 1024.5
20190325100707 49 330 9.0 21.0 0.00 0.00 0.00 66 1024.5
20190325100205 49 333 8.0 21.0 0.00 0.00 0.00 64 1024.5
20190325095709 49 253 9.0 23.0 0.00 0.00 0.00 65 1024.4
20190325095204 48 302 8.0 27.0 0.00 0.00 0.00 67 1024.3
20190325094704 48 281 10.0 27.0 0.00 0.00 0.00 67 1024.3
20190325094203 47 287 12.0 27.0 0.00 0.00 0.00 67 1024.3
20190325093703 47 296 12.0 25.0 0.00 0.00 0.00 67 1024.2
20190325093206 47 302 9.0 21.0 0.00 0.00 0.00 72 1024.2
20190325092703 47 285 9.0 22.0 0.00 0.00 0.00 75 1024.2
20190325092204 47 338 11.0 22.0 0.00 0.00 0.00 76 1024.0
20190325091703 47 312 10.0 22.0 0.00 0.00 0.00 77 1023.9
20190325091206 47 305 9.0 21.0 0.00 0.00 0.00 78 1024.0
20190325090705 46 320 8.0 21.0 0.00 0.00 0.00 81 1024.0
20190325090203 46 291 7.0 22.0 0.00 0.00 0.00 80 1023.9
20190325085707 45 274 9.0 22.0 0.00 0.00 0.00 82 1023.8
20190325085203 45 288 10.0 26.0 0.00 0.00 0.00 81 1023.7
20190325084703 46 276 11.0 26.0 0.00 0.00 0.00 79 1023.8
20190325084203 47 326 11.0 26.0 0.00 0.00 0.00 75 1023.5
20190325083703 47 308 10.0 22.0 0.00 0.00 0.00 75 1023.3
20190325083204 46 283 10.0 22.0 0.00 0.00 0.00 76 1023.1
20190325082703 46 288 10.0 23.0 0.00 0.00 0.00 77 1023.1
20190325082206 46 284 11.0 25.0 0.00 0.00 0.00 77 1023.0
20190325081704 46 283 13.0 25.0 0.00 0.00 0.00 76 1023.0
20190325081203 46 256 14.0 25.0 0.00 0.00 0.00 75 1022.9
20190325080703 46 285 14.0 25.0 0.00 0.00 0.00 75 1022.7
20190325080203 46 285 13.0 24.0 0.00 0.00 0.00 74 1022.7
20190325075705 47 301 11.0 24.0 0.00 0.00 0.00 74 1022.8
20190325075208 46 290 9.0 21.0 0.00 0.00 0.00 73 1022.7
20190325074703 46 285 9.0 21.0 0.00 0.00 0.00 74 1022.7
20190325074206 46 309 10.0 21.0 0.00 0.00 0.00 74 1022.6
20190325073705 46 286 10.0 21.0 0.00 0.00 0.00 74 1022.6
20190325073204 45 288 10.0 21.0 0.00 0.00 0.00 75 1022.6
20190325072703 45 300 11.0 30.0 0.00 0.00 0.00 76 1022.8
20190325072208 45 302 11.0 30.0 0.00 0.00 0.00 76 1022.7
20190325071703 45 291 11.0 30.0 0.00 0.00 0.00 74 1022.7
20190325071204 46 301 11.0 20.0 0.00 0.00 0.00 72 1022.7
20190325070704 46 312 11.0 20.0 0.00 0.00 0.00 73 1022.4
20190325070203 46 290 10.0 17.0 0.00 0.00 0.00 74 1022.4
20190325065703 45 297 9.0 17.0 0.00 0.00 0.00 76 1022.3
20190325065207 45 291 8.0 17.0 0.00 0.00 0.00 78 1022.3
20190325064708 45 336 9.0 20.0 0.00 0.00 0.00 79 1022.2
20190325064204 45 322 10.0 28.0 0.00 0.00 0.00 79 1022.1
20190325063704 45 294 10.0 28.0 0.00 0.00 0.00 78 1022.1
20190325063203 45 73 10.0 28.0 0.00 0.00 0.00 78 1022.1
20190325062703 45 294 10.0 25.0 0.00 0.00 0.00 79 1022.0
20190325062205 45 280 10.0 25.0 0.00 0.00 0.00 79 1021.9
20190325061705 45 297 9.0 0.0 0.00 0.00 0.00 79 1021.8
20190325061204 45 0.0 0.0 0.00 0.00 0.00 79 1021.9
20190325041207 46 0.0 17.0 0.00 0.00 0.00 83 1021.3
20190325040703 46 297 9.0 17.0 0.00 0.00 0.00 83 1021.2
20190325040204 44 305 9.0 21.0 0.00 0.00 0.00 83 1021.2
20190325035709 45 271 9.0 21.0 0.00 0.00 0.00 83 1021.3
20190325035204 45 284 10.0 21.0 0.00 0.00 0.00 84 1021.2
20190325034703 45 278 11.0 17.0 0.00 0.00 0.00 84 1021.3
20190325034204 44 293 11.0 17.0 0.00 0.00 0.00 85 1021.2
20190325033709 44 281 9.0 16.0 0.00 0.00 0.00 86 1021.2
20190325033203 44 325 7.0 13.0 0.00 0.00 0.00 86 1021.1
20190325032704 44 246 7.0 15.0 0.00 0.00 0.00 86 1021.2
20190325032203 44 331 7.0 17.0 0.00 0.00 0.00 86 1021.2
20190325031704 44 284 9.0 19.0 0.00 0.00 0.00 86 1021.1
20190325031205 44 263 11.0 22.0 0.00 0.00 0.00 85 1021.2
20190325030704 45 296 12.0 22.0 0.00 0.00 0.00 81 1021.3
20190325030203 47 305 11.0 22.0 0.00 0.00 0.00 78 1021.2
20190325025703 47 281 11.0 22.0 0.00 0.00 0.00 78 1021.0
20190325025205 47 300 12.0 22.0 0.00 0.00 0.00 78 1021.1
20190325024709 47 288 11.0 22.0 0.00 0.00 0.00 80 1021.1
20190325024203 47 285 11.0 21.0 0.00 0.00 0.00 80 1021.2
20190325023706 47 267 11.0 22.0 0.00 0.00 0.00 80 1021.3
20190325023204 47 308 11.0 22.0 0.00 0.00 0.00 81 1021.2
20190325022704 47 273 11.0 21.0 0.00 0.00 0.00 82 1021.3
20190325022205 47 293 8.0 18.0 0.00 0.00 0.00 83 1021.3
20190325021709 46 281 6.0 13.0 0.00 0.00 0.00 83 1021.3
20190325021203 46 288 6.0 13.0 0.00 0.00 0.00 83 1021.3
20190325020703 46 267 6.0 11.0 0.00 0.00 0.00 83 1021.3
20190325020205 46 311 6.0 11.0 0.00 0.00 0.00 83 1021.4
20190325015704 46 293 6.0 10.0 0.00 0.00 0.00 83 1021.5
20190325015204 46 259 5.0 11.0 0.00 0.00 0.00 83 1021.5
20190325014703 46 278 5.0 11.0 0.00 0.00 0.00 83 1021.5
20190325014207 46 273 5.0 14.0 0.00 0.00 0.00 83 1021.5
20190325013704 46 210 5.0 14.0 0.00 0.00 0.00 83 1021.5
20190325013205 45 276 6.0 13.0 0.00 0.00 0.00 83 1021.5
20190325012704 45 330 5.0 10.0 0.00 0.00 0.00 83 1021.5
20190325012204 45 280 4.0 10.0 0.00 0.00 0.00 83 1021.5
20190325011703 45 271 4.0 10.0 0.00 0.00 0.00 83 1021.6
20190325011204 45 256 4.0 10.0 0.00 0.00 0.00 84 1021.6
20190325010705 45 252 4.0 10.0 0.00 0.00 0.00 84 1021.7
20190325010207 44 269 4.0 9.0 0.00 0.00 0.00 85 1021.7
20190325005705 44 307 3.0 8.0 0.00 0.00 0.00 86 1021.7
20190325005205 43 212 3.0 7.0 0.00 0.00 0.00 87 1021.7
20190325004704 43 290 3.0 8.0 0.00 0.00 0.00 87 1021.8
20190325004205 43 274 3.0 9.0 0.00 0.00 0.00 87 1021.8
20190325003703 43 327 3.0 10.0 0.00 0.00 0.00 87 1021.9
20190325003210 42 245 3.0 10.0 0.00 0.00 0.00 87 1021.9
20190325002704 42 266 4.0 10.0 0.00 0.00 0.00 87 1021.9
20190325002204 42 313 4.0 10.0 0.00 0.00 0.00 87 1022.0
20190325001706 43 250 4.0 10.0 0.00 0.00 0.00 87 1022.0
20190325001206 43 215 4.0 10.0 0.00 0.00 0.00 86 1022.0
20190325000707 43 143 4.0 10.0 0.00 0.00 0.00 86 1022.1
20190325000208 43 249 4.0 11.0 0.00 0.00 0.00 86 1022.2
20190324235708 43 290 4.0 11.0 0.00 0.00 0.00 86 1022.3
20190324235204 43 228 3.0 7.0 0.00 0.00 0.00 86 1022.4
20190324234704 43 267 3.0 7.0 0.00 0.00 0.00 86 1022.4
20190324234204 43 226 3.0 9.0 0.00 0.00 0.00 85 1022.5
20190324233705 43 253 3.0 9.0 0.00 0.00 0.00 85 1022.6
20190324233210 43 219 3.0 10.0 0.00 0.00 0.00 85 1022.6
20190324232703 43 244 4.0 11.0 0.00 0.00 0.00 85 1022.6
20190324232204 43 205 5.0 11.0 0.00 0.00 0.00 85 1022.8
20190324231708 42 242 4.0 11.0 0.00 0.00 0.00 85 1022.8
20190324231204 42 242 3.0 9.0 0.00 0.00 0.00 85 1022.9
20190324230704 42 221 4.0 9.0 0.00 0.00 0.00 85 1023.0
20190324230204 42 222 4.0 7.0 0.00 0.00 0.01 85 1023.1
20190324225703 42 277 4.0 8.0 0.00 0.00 0.00 85 1023.1
20190324225205 42 218 4.0 8.0 0.00 0.00 0.00 85 1023.1
20190324224704 42 269 4.0 8.0 0.00 0.00 0.00 86 1023.3
20190324224204 42 218 3.0 7.0 0.00 0.00 0.00 86 1023.4
20190324223704 42 246 3.0 7.0 0.00 0.00 0.00 86 1023.4
20190324223206 42 186 3.0 7.0 0.00 0.00 0.00 86 1023.6
20190324222706 42 219 3.0 7.0 0.00 0.00 0.00 86 1023.5
20190324222204 42 218 3.0 7.0 0.00 0.00 0.00 86 1023.7
20190324221705 43 225 3.0 9.0 0.00 0.00 0.00 85 1023.8
20190324221206 43 240 3.0 9.0 0.00 0.00 0.00 85 1023.8
20190324220704 43 241 3.0 7.0 0.00 0.00 0.00 85 1023.8
20190324220204 43 214 2.0 5.0 0.00 0.00 0.00 85 1024.0
20190324215704 43 260 2.0 5.0 0.00 0.00 0.00 84 1024.1
20190324215203 43 263 2.0 8.0 0.00 0.00 0.00 84 1024.2
20190324214709 43 270 2.0 8.0 0.00 0.00 0.00 84 1024.3
20190324214207 43 230 2.0 8.0 0.00 0.00 0.00 84 1024.3
20190324213707 43 41 2.0 5.0 0.00 0.00 0.00 84 1024.4
20190324213205 43 271 2.0 5.0 0.00 0.00 0.00 84 1024.4
20190324212704 43 262 2.0 6.0 0.00 0.00 0.00 84 1024.5
20190324212204 43 279 2.0 6.0 0.00 0.00 0.00 84 1024.5
20190324211704 43 308 2.0 7.0 0.00 0.00 0.00 84 1024.5
20190324211215 43 276 2.0 7.0 0.00 0.00 0.00 84 1024.6
20190324210704 43 256 2.0 7.0 0.00 0.00 0.00 83 1024.6
20190324210204 43 245 1.0 4.0 0.00 0.00 0.00 83 1024.7
20190324205704 44 246 1.0 5.0 0.00 0.00 0.00 83 1024.7
20190324205204 44 256 1.0 5.0 0.00 0.00 0.00 84 1024.8
20190324204708 44 201 1.0 5.0 0.00 0.00 0.00 84 1024.9
20190324204204 44 225 1.0 4.0 0.00 0.00 0.00 84 1025.0
20190324203703 44 235 1.0 4.0 0.00 0.00 0.00 83 1025.0
20190324203204 44 266 2.0 5.0 0.00 0.00 0.00 82 1025.1
20190324202705 44 267 3.0 6.0 0.00 0.00 0.00 82 1025.2
20190324202204 45 288 3.0 6.0 0.00 0.00 0.00 82 1025.1
20190324201704 45 281 3.0 7.0 0.00 0.00 0.00 81 1025.2
20190324201205 45 266 3.0 7.0 0.00 0.00 0.00 80 1025.1
20190324200710 45 295 3.0 7.0 0.00 0.00 0.00 78 1025.2
20190324200204 45 302 3.0 7.0 0.00 0.00 0.00 78 1025.2
20190324195704 45 252 4.0 7.0 0.00 0.00 0.00 77 1025.3
20190324195207 45 300 4.0 7.0 0.00 0.00 0.00 76 1025.3
20190324194704 45 288 4.0 7.0 0.00 0.00 0.00 76 1025.3
20190324194206 45 252 3.0 7.0 0.00 0.00 0.00 75 1025.3
20190324193707 46 285 3.0 6.0 0.00 0.00 0.00 75 1025.3
20190324193204 46 277 3.0 6.0 0.00 0.00 0.00 75 1025.4
20190324192703 46 276 3.0 7.0 0.00 0.00 0.00 74 1025.3
20190324192205 46 290 3.0 7.0 0.00 0.00 0.00 74 1025.3
20190324191705 46 305 4.0 7.0 0.00 0.00 0.00 75 1025.4
20190324191204 46 290 3.0 7.0 0.00 0.00 0.00 75 1025.4
20190324190706 46 287 3.0 6.0 0.00 0.00 0.00 75 1025.4
20190324190205 46 274 3.0 7.0 0.00 0.00 0.00 75 1025.5
20190324185706 46 288 3.0 7.0 0.00 0.00 0.00 74 1025.4
20190324185205 47 281 3.0 7.0 0.00 0.00 0.00 74 1025.5
20190324184710 47 294 3.0 8.0 0.00 0.00 0.00 74 1025.6
20190324184204 47 281 4.0 8.0 0.00 0.00 0.00 73 1025.5
20190324183706 47 231 4.0 6.0 0.00 0.00 0.00 72 1025.5
20190324183205 47 248 3.0 8.0 0.00 0.00 0.00 72 1025.5
20190324182705 47 288 4.0 9.0 0.00 0.00 0.00 71 1025.4
20190324182204 47 274 5.0 9.0 0.00 0.00 0.00 70 1025.5
20190324181704 47 277 5.0 9.0 0.00 0.00 0.00 69 1025.4
20190324181208 47 284 5.0 7.0 0.00 0.00 0.00 69 1025.3
20190324180705 48 302 4.0 9.0 0.00 0.00 0.00 68 1025.4
20190324180210 48 297 4.0 12.0 0.00 0.00 0.00 67 1025.3
20190324175704 48 273 6.0 12.0 0.00 0.00 0.00 66 1025.4